Flag for United Kingdom Weather past 2 weeks in Glasgow, Scotland, United Kingdom

Now
59 °F

Partly sunny.


Feels Like: 57 °F
Forecast: 55 / 62 °F
Wind: 12 mph from Northeast

Location: Glasgow Airport

Current Time: Sep 15, 2014 at 11:18:49 AM

Latest Report: Sep 15, 2014 at 10:50 AM


Visibility: N/A

Pressure: 30.21 "Hg

Humidity: 82%

Dew point: 54 °F

Location of GlasgowLocation

Historic Weather in Glasgow — Graph

°F

Glasgow temperature yesterday

Maximum temperature yesterday: 63 °F (at 3:50 PM)
Minimum temperature yesterday: 54 °F (at 1:20 AM)
Average temperature yesterday: 58 °F

Past Weeks' High & Low Weather Summary

 TemperatureHumidityPressure
High72 °F (Sep 4, 2:20 PM)100% (Aug 31, 10:50 PM)30.39 "Hg (Aug 31, 10:50 PM)
Low37 °F (Sep 8, 6:20 AM)50% (Sep 13, 5:20 PM)29.95 "Hg (Aug 31, 5:50 PM)
Average57 °F82%30.16 "Hg
* Reported Aug 31 10:20 AM — Sep 15 10:20 AM, Glasgow, Weather by CustomWeather, © 2014

Note: Actual official high and low records may vary slightly from our data, if they occured in-between our weather recording intervals... More about our weather records

Advertising

Glasgow weather history for previous 24 hours

 ConditionsComfort  
Time TempWeatherWind HumidityBarometerVisibility
10:20 AM
Sep 15
59 °FPartly sunny.9 mph82%30.21 "HgN/A
9:20 AM57 °FOvercast.8 mph88%30.21 "HgN/A
8:50 AM57 °FBroken clouds.8 mph88%30.21 "HgN/A
8:20 AM57 °FBroken clouds.8 mph82%30.21 "HgN/A
7:50 AM55 °FBroken clouds.7 mph88%30.21 "HgN/A
7:20 AM55 °FPartly cloudy.8 mph88%30.21 "HgN/A
6:50 AM55 °FOvercast.10 mph88%30.21 "HgN/A
6:20 AM55 °FPassing clouds.12 mph88%30.21 "HgN/A
5:50 AM55 °FPassing clouds.10 mph88%30.24 "HgN/A
5:20 AM55 °FPassing clouds.12 mph88%30.24 "HgN/A
4:50 AM55 °FMostly cloudy.12 mph88%30.24 "HgN/A
4:20 AM55 °FMostly cloudy.10 mph88%30.24 "HgN/A
3:20 AM55 °FMostly cloudy.10 mph82%30.27 "HgN/A
2:50 AM55 °FPassing clouds.8 mph82%30.27 "HgN/A
2:20 AM55 °FMostly cloudy.9 mph82%30.27 "HgN/A
1:50 AM55 °FOvercast.10 mph88%30.27 "HgN/A
1:20 AM55 °FMostly cloudy.10 mph88%30.27 "HgN/A
12:50 AM57 °FMostly cloudy.9 mph82%30.27 "HgN/A
12:20 AM57 °FOvercast.12 mph82%30.30 "HgN/A
11:50 PM
Sep 14
57 °FOvercast.12 mph82%30.30 "HgN/A
11:20 PM57 °FMostly cloudy.10 mph82%30.30 "HgN/A
10:50 PM57 °FMostly cloudy.12 mph82%30.30 "HgN/A
10:20 PM57 °FPassing clouds.12 mph82%30.30 "HgN/A
9:50 PM57 °FPassing clouds.9 mph88%30.30 "HgN/A
9:20 PM57 °FPassing clouds.10 mph88%30.30 "HgN/A
8:50 PM57 °FPassing clouds.12 mph82%30.30 "HgN/A
8:20 PM57 °FPartly sunny.13 mph82%30.30 "HgN/A
7:50 PM59 °FPartly sunny.14 mph77%30.30 "HgN/A
7:20 PM59 °FPartly sunny.16 mph77%30.30 "HgN/A
6:50 PM61 °FPassing clouds.15 mph72%30.30 "HgN/A
6:20 PM61 °FSunny.15 mph72%30.30 "Hg10 mi
5:50 PM61 °FSunny.15 mph72%30.30 "Hg10 mi
5:20 PM61 °FPartly sunny.15 mph68%30.30 "HgN/A
4:50 PM61 °FPartly sunny.14 mph72%30.30 "HgN/A
4:20 PM63 °FBroken clouds.14 mph73%30.30 "HgN/A
3:50 PM63 °FBroken clouds.13 mph73%30.30 "HgN/A
3:20 PM61 °FPartly sunny.13 mph77%30.33 "HgN/A
2:50 PM61 °FPartly sunny.14 mph72%30.33 "HgN/A
2:20 PM61 °FBroken clouds.15 mph72%30.33 "HgN/A
1:50 PM59 °FPartly sunny.13 mph77%30.33 "HgN/A
1:20 PM61 °FBroken clouds.12 mph72%30.36 "HgN/A
12:50 PM59 °FPartly sunny.14 mph77%30.36 "HgN/A
12:20 PM59 °FOvercast.12 mph77%30.36 "HgN/A
11:50 AM59 °FOvercast.8 mph72%30.36 "HgN/A
11:20 AM57 °FOvercast.8 mph77%30.39 "HgN/A
Weather by CustomWeather, © 2014

See weather overviewHow to use our weather pages